Weather History for KBGF - January, 2013

Change the Weather History Date:

Saturday, January 19, 2013

  Actual Average (KTHA) Record (KTHA)
Temperature  
Mean Temperature 42 °F -  
Max Temperature 53 °F 46 °F 62 °F (2015)
Min Temperature 30 °F 29 °F 24 °F (2013)
Degree Days  
Heating Degree Days 24    
Moisture  
Dew Point 28 °F    
Average Humidity 61    
Maximum Humidity 87    
Minimum Humidity 38    
Precipitation  
Precipitation 0.00 in - - ()
Sea Level Pressure  
Sea Level Pressure 30.30 in    
Wind  
Wind Speed 5 mph (South)    
Max Wind Speed 12 mph    
Max Gust Speed -    
Visibility 10 miles    
Events      
Averages and records for this station are not official NWS values.
T = Trace of Precipitation, MM = Missing Value Source: NWS Daily Summary

Daily Weather History Graph

Daily Weather History Graph

Search for Another Location

Airport or City:

Trip Planner

Search our weather history database for the weather conditions in past years. The results will help you decide how hot, cold, wet, or windy it might be!

Date:

Astronomy

Jan. 19, 2013 Rise Set
Actual Time 7:50 AM EST 5:59 PM EST
Civil Twilight 7:23 AM EST 6:27 PM EST
Nautical Twilight 6:52 AM EST 6:58 PM EST
Astronomical Twilight 6:22 AM EST 7:28 PM EST
Moon 12:23 PM EST (1/19) 1:27 AM EST (1/19)
Length of Visible Light 11h 03m
Length of Day
10h 08m
First Quarter, 57% of the Moon is Illuminated
Jan 19
First Quarter
Jan 26
Full
Feb 3
Last Quarter
Feb 10
New
Feb 17
First Quarter

Hourly Weather History & Observations

Time (EST) Temp. Windchill Dew Point Humidity Pressure Visibility Wind Dir Wind Speed Gust Speed Precip Events Conditions
12:15 AM 33.8 °F 28.6 °F 24.8 °F 70% 30.39 in 10.0 mi SE 5.8 mph - N/A   Clear
12:35 AM 35.6 °F 29.9 °F 24.8 °F 65% 30.39 in 10.0 mi SE 6.9 mph - N/A   Clear
12:55 AM 33.8 °F 28.6 °F 24.8 °F 70% 30.38 in 10.0 mi SE 5.8 mph - N/A   Clear
1:35 AM 33.8 °F - 24.8 °F 70% 30.39 in 10.0 mi Calm Calm - N/A   Clear
1:55 AM 30.2 °F - 24.8 °F 80% 30.39 in 10.0 mi Calm Calm - N/A   Clear
2:15 AM 33.8 °F 29.6 °F 24.8 °F 70% 30.39 in 10.0 mi SSE 4.6 mph - N/A   Clear
2:35 AM 33.8 °F 26.4 °F 24.8 °F 70% 30.39 in 10.0 mi SE 9.2 mph - N/A   Clear
2:55 AM 37.4 °F 33.8 °F 26.6 °F 65% 30.39 in 10.0 mi SSE 4.6 mph - N/A   Clear
3:15 AM 37.4 °F - 24.8 °F 60% 30.39 in 10.0 mi Calm Calm - N/A   Clear
3:35 AM 37.4 °F - 24.8 °F 60% 30.40 in 10.0 mi Calm Calm - N/A   Clear
3:55 AM 37.4 °F 34.9 °F 24.8 °F 60% 30.40 in 10.0 mi SSE 3.5 mph - N/A   Clear
4:15 AM 32.0 °F 27.5 °F 24.8 °F 75% 30.39 in 10.0 mi SE 4.6 mph - N/A   Clear
4:35 AM 33.8 °F 27.7 °F 24.8 °F 70% 30.38 in 10.0 mi SE 6.9 mph - N/A   Clear
4:55 AM 33.8 °F 28.6 °F 24.8 °F 70% 30.38 in 10.0 mi SE 5.8 mph - N/A   Clear
5:15 AM 33.8 °F 27.7 °F 26.6 °F 75% 30.38 in 10.0 mi SE 6.9 mph - N/A   Clear
5:35 AM 33.8 °F 27.7 °F 24.8 °F 70% 30.37 in 10.0 mi SE 6.9 mph - N/A   Clear
5:55 AM 33.8 °F 29.6 °F 26.6 °F 75% 30.37 in 10.0 mi SSE 4.6 mph - N/A   Clear
6:15 AM 33.8 °F 29.6 °F 24.8 °F 70% 30.38 in 10.0 mi SSE 4.6 mph - N/A   Clear
6:35 AM 35.6 °F 29.9 °F 24.8 °F 65% 30.37 in 10.0 mi SE 6.9 mph - N/A   Clear
6:55 AM 35.6 °F 29.2 °F 26.6 °F 70% 30.37 in 10.0 mi SE 8.1 mph - N/A   Clear
8:15 AM 33.8 °F 27.7 °F 26.6 °F 75% 30.38 in 10.0 mi SE 6.9 mph - N/A   Clear
8:55 AM 37.4 °F 32.1 °F 26.6 °F 65% 30.39 in 10.0 mi SE 6.9 mph - N/A   Clear
9:15 AM 39.2 °F 33.6 °F 28.4 °F 65% 30.39 in 10.0 mi SE 8.1 mph - N/A   Clear
9:35 AM 41.0 °F 37.1 °F 28.4 °F 61% 30.39 in 10.0 mi SE 5.8 mph - N/A   Clear
10:35 AM 46.4 °F 41.9 °F 28.4 °F 50% 30.40 in 10.0 mi South 9.2 mph - N/A   Clear
10:55 AM 48.2 °F - 28.4 °F 46% 30.39 in 10.0 mi South 11.5 mph - N/A   Clear
11:15 AM 48.2 °F - 28.4 °F 46% 30.39 in 10.0 mi South 9.2 mph - N/A   Clear
11:35 AM 50.0 °F - 28.4 °F 43% 30.38 in 10.0 mi Variable 5.8 mph - N/A   Clear
12:15 PM 51.8 °F - 28.4 °F 41% 30.35 in 10.0 mi SSW 11.5 mph - N/A   Clear
12:35 PM 51.8 °F - 28.4 °F 41% 30.33 in 10.0 mi SSW 10.4 mph - N/A   Clear
12:55 PM 51.8 °F - 28.4 °F 41% 30.31 in 10.0 mi SW 9.2 mph - N/A   Clear
1:15 PM 53.6 °F - 28.4 °F 38% 30.29 in 10.0 mi SW 9.2 mph - N/A   Clear
1:35 PM 53.6 °F - 28.4 °F 38% 30.28 in 10.0 mi SW 9.2 mph - N/A   Clear
1:55 PM 53.6 °F - 28.4 °F 38% 30.27 in 10.0 mi WSW 10.4 mph - N/A   Clear
2:35 PM 53.6 °F - 28.4 °F 38% 30.26 in 10.0 mi WSW 11.5 mph - N/A   Clear
2:55 PM 53.6 °F - 28.4 °F 38% 30.25 in 10.0 mi WSW 8.1 mph - N/A   Clear
3:15 PM 53.6 °F - 28.4 °F 38% 30.24 in 10.0 mi West 9.2 mph - N/A   Clear
3:35 PM 53.6 °F - 28.4 °F 38% 30.24 in 10.0 mi WSW 9.2 mph - N/A   Clear
3:55 PM 53.6 °F - 28.4 °F 38% 30.23 in 10.0 mi WSW 8.1 mph - N/A   Clear
4:15 PM 53.6 °F - 30.2 °F 41% 30.23 in 10.0 mi WSW 6.9 mph - N/A   Clear
4:35 PM 53.6 °F - 30.2 °F 41% 30.23 in 10.0 mi WSW 6.9 mph - N/A   Clear
4:55 PM 53.6 °F - 28.4 °F 38% 30.22 in 10.0 mi WSW 5.8 mph - N/A   Clear
5:15 PM 51.8 °F - 28.4 °F 41% 30.22 in 10.0 mi WSW 4.6 mph - N/A   Clear
5:35 PM 50.0 °F - 28.4 °F 43% 30.23 in 10.0 mi WSW 4.6 mph - N/A   Clear
5:55 PM 48.2 °F - 28.4 °F 46% 30.23 in 10.0 mi Calm Calm - N/A   Clear
6:15 PM 46.4 °F - 28.4 °F 50% 30.23 in 10.0 mi Calm Calm - N/A   Clear
6:35 PM 46.4 °F - 28.4 °F 50% 30.23 in 10.0 mi Calm Calm - N/A   Clear
6:55 PM 39.2 °F - 32.0 °F 75% 30.23 in 10.0 mi Calm Calm - N/A   Clear
7:15 PM 39.2 °F - 33.8 °F 81% 30.23 in 10.0 mi Calm Calm - N/A   Clear
7:35 PM 37.4 °F 34.9 °F 30.2 °F 75% 30.23 in 10.0 mi South 3.5 mph - N/A   Clear
7:55 PM 39.2 °F 35.9 °F 28.4 °F 65% 30.22 in 10.0 mi South 4.6 mph - N/A   Clear
8:15 PM 35.6 °F - 30.2 °F 81% 30.22 in 10.0 mi Calm Calm - N/A   Clear
8:35 PM 35.6 °F - 30.2 °F 81% 30.22 in 10.0 mi Calm Calm - N/A   Clear
8:55 PM 35.6 °F - 28.4 °F 75% 30.21 in 10.0 mi Calm Calm - N/A   Clear
9:15 PM 35.6 °F - 30.2 °F 81% 30.21 in 10.0 mi Calm Calm - N/A   Clear
9:35 PM 35.6 °F - 28.4 °F 75% 30.21 in 10.0 mi Calm Calm - N/A   Clear
9:55 PM 35.6 °F 30.7 °F 28.4 °F 75% 30.21 in 10.0 mi SSE 5.8 mph - N/A   Clear
10:15 PM 33.8 °F - 30.2 °F 87% 30.22 in 10.0 mi Calm Calm - N/A   Clear
10:35 PM 33.8 °F - 28.4 °F 81% 30.21 in 10.0 mi Calm Calm - N/A   Clear
10:55 PM 35.6 °F 31.7 °F 28.4 °F 75% 30.21 in 10.0 mi SSE 4.6 mph - N/A   Clear
11:15 PM 37.4 °F 34.9 °F 28.4 °F 70% 30.21 in 10.0 mi SE 3.5 mph - N/A   Clear
11:35 PM 35.6 °F - 28.4 °F 75% 30.21 in 10.0 mi Calm Calm - N/A   Clear
11:55 PM 33.8 °F - 28.4 °F 81% 30.21 in 10.0 mi Calm Calm - N/A   Clear